Location: Eaton Estates
(41.3089°N, 82.0057°W)
Time: 20:50:13
(UTC+00:00)

Cosmos 2123 Rocket - Pass Details

Date: 16 October 2021
Orbit: 961 x 992 km, 82.9° (Epoch: 03 December)

Event Time Altitude Azimuth Distance (km) Brightness Sun altitude
Rises 23:13:37 0° 4° (N) 3,717 6.9 -6.1°
Reaches altitude 10° 23:16:45 10° 18° (NNE) 2,763 6.1 -6.7°
Maximum altitude 23:21:42 23° 70° (ENE) 1,956 5.0 -7.6°
Drops below altitude 10° 23:26:35 10° 121° (ESE) 2,742 5.9 -8.5°
Sets 23:29:39 0° 136° (SE) 3,682 6.6 -9.1°
